Time,TemperatureF,DewpointF,PressureIn,WindDirection,WindDirectionDegrees,WindSpeedMPH,WindSpeedGustMPH,Humidity,HourlyPrecipIn,Conditions,Clouds,dailyrainin,SoftwareType,DateUTC
2013-03-11 00:03:00,32.7,32.2,29.68,North,0,3.0,6.0,98,0.00,RA,,0.00,WeatherDisplay:10.37,2013-03-11 05:03:00,
2013-03-11 00:08:00,32.7,32.2,29.68,North,0,2.0,5.0,98,0.00,CLR,,0.00,WeatherDisplay:10.37,2013-03-11 05:08:00,
2013-03-11 00:13:00,32.7,32.2,29.65,North,0,2.2,2.3,98,0.00,CLR,,0.00,WeatherDisplay:10.37,2013-03-11 05:13:00,
2013-03-11 00:18:00,32.7,32.2,29.65,North,0,3.0,5.0,98,0.00,CLR,,0.00,WeatherDisplay:10.37,2013-03-11 05:18:00,
2013-03-11 00:23:00,32.5,32.0,29.65,North,0,2.0,6.0,98,0.00,CLR,,0.00,WeatherDisplay:10.37,2013-03-11 05:23:00,
2013-03-11 00:28:00,32.5,32.0,29.65,North,0,3.0,6.0,98,0.00,CLR,,0.00,WeatherDisplay:10.37,2013-03-11 05:28:00,
2013-03-11 00:33:00,32.4,31.9,29.65,North,0,2.9,4.6,98,0.00,CLR,,0.00,WeatherDisplay:10.37,2013-03-11 05:33:00,
2013-03-11 00:38:00,32.4,31.9,29.65,North,0,0.0,3.0,98,0.00,CLR,,0.00,WeatherDisplay:10.37,2013-03-11 05:38:00,
2013-03-11 00:43:00,32.2,31.7,29.62,North,0,0.0,0.0,98,0.00,CLR,,0.00,WeatherDisplay:10.37,2013-03-11 05:43:00,
2013-03-11 00:48:00,32.2,31.7,29.62,North,0,0.0,0.0,98,0.00,CLR,,0.00,WeatherDisplay:10.37,2013-03-11 05:48:00,
2013-03-11 00:53:00,32.2,31.7,29.62,North,0,0.0,0.0,98,0.00,CLR,,0.00,WeatherDisplay:10.37,2013-03-11 05:53:00,
2013-03-11 00:58:00,32.2,31.7,29.62,North,0,0.0,0.0,98,0.00,CLR,,0.00,WeatherDisplay:10.37,2013-03-11 05:58:00,
2013-03-11 01:03:00,32.2,31.7,29.62,North,0,0.0,0.0,98,0.00,CLR,,0.00,WeatherDisplay:10.37,2013-03-11 06:03:00,
2013-03-11 01:08:00,32.2,31.7,29.62,North,0,0.0,0.0,98,0.00,CLR,,0.00,WeatherDisplay:10.37,2013-03-11 06:08:00,
2013-03-11 01:13:00,32.2,31.7,29.65,North,0,0.0,0.0,98,0.00,CLR,,0.00,WeatherDisplay:10.37,2013-03-11 06:13:00,
2013-03-11 01:18:00,32.2,31.7,29.65,North,0,0.0,0.0,98,0.00,CLR,,0.00,WeatherDisplay:10.37,2013-03-11 06:18:00,
2013-03-11 01:23:00,32.2,31.7,29.65,North,0,0.0,0.0,98,0.00,CLR,,0.00,WeatherDisplay:10.37,2013-03-11 06:23:00,
2013-03-11 01:28:00,32.2,31.7,29.65,North,0,0.0,0.0,98,0.00,CLR,,0.00,WeatherDisplay:10.37,2013-03-11 06:28:00,
2013-03-11 01:33:00,32.2,31.7,29.65,North,0,0.0,0.0,98,0.00,CLR,,0.00,WeatherDisplay:10.37,2013-03-11 06:33:00,
2013-03-11 01:38:00,32.0,31.5,29.65,North,0,0.0,0.0,98,0.00,CLR,,0.00,WeatherDisplay:10.37,2013-03-11 06:38:00,
2013-03-11 01:43:00,32.0,31.5,29.65,North,0,0.0,0.0,98,0.00,CLR,,0.00,WeatherDisplay:10.37,2013-03-11 06:43:00,
2013-03-11 01:48:00,31.8,31.3,29.65,North,0,0.0,0.0,98,0.00,CLR,,0.00,WeatherDisplay:10.37,2013-03-11 06:48:00,
2013-03-11 01:53:00,31.8,31.3,29.65,North,0,0.0,0.0,98,0.00,CLR,,0.00,WeatherDisplay:10.37,2013-03-11 06:53:00,
2013-03-11 01:58:00,31.8,31.3,29.65,North,0,0.0,0.0,98,0.00,CLR,,0.00,WeatherDisplay:10.37,2013-03-11 06:58:00,
2013-03-11 02:03:00,31.6,31.1,29.65,North,0,0.0,0.0,98,0.00,CLR,,0.00,WeatherDisplay:10.37,2013-03-11 07:03:00,
2013-03-11 02:08:00,31.6,31.1,29.65,North,0,0.0,0.0,98,0.00,CLR,,0.00,WeatherDisplay:10.37,2013-03-11 07:08:00,
2013-03-11 02:13:00,31.5,31.0,29.65,North,0,0.0,0.0,98,0.00,CLR,,0.00,WeatherDisplay:10.37,2013-03-11 07:13:00,
2013-03-11 02:18:00,31.5,31.0,29.65,North,0,0.0,0.0,98,0.00,CLR,,0.00,WeatherDisplay:10.37,2013-03-11 07:18:00,
2013-03-11 02:23:00,31.3,30.8,29.65,North,0,0.0,0.0,98,0.00,CLR,,0.00,WeatherDisplay:10.37,2013-03-11 07:23:00,
2013-03-11 02:28:00,31.3,30.8,29.65,North,0,0.0,0.0,98,0.00,CLR,,0.00,WeatherDisplay:10.37,2013-03-11 07:28:00,
2013-03-11 02:33:00,31.1,30.6,29.65,North,0,0.0,0.0,98,0.00,CLR,,0.00,WeatherDisplay:10.37,2013-03-11 07:33:00,
2013-03-11 02:38:00,31.1,30.6,29.65,North,0,0.0,0.0,98,0.00,CLR,,0.00,WeatherDisplay:10.37,2013-03-11 07:38:00,
2013-03-11 02:43:00,31.1,30.6,29.65,North,0,0.0,0.0,98,0.00,CLR,,0.00,WeatherDisplay:10.37,2013-03-11 07:43:00,
2013-03-11 02:48:00,31.1,30.6,29.65,North,0,0.0,0.0,98,0.00,CLR,,0.00,WeatherDisplay:10.37,2013-03-11 07:48:00,
2013-03-11 02:53:00,30.9,30.4,29.65,North,0,0.0,0.0,98,0.00,CLR,,0.00,WeatherDisplay:10.37,2013-03-11 07:53:00,
2013-03-11 02:58:00,30.7,30.2,29.65,North,0,0.0,0.0,98,0.00,CLR,,0.00,WeatherDisplay:10.37,2013-03-11 07:58:00,
2013-03-11 03:03:00,30.7,30.2,29.65,North,0,0.0,0.0,98,0.00,CLR,,0.00,WeatherDisplay:10.37,2013-03-11 08:03:00,
2013-03-11 03:08:00,30.7,30.2,29.65,North,0,0.0,0.0,98,0.00,CLR,,0.00,WeatherDisplay:10.37,2013-03-11 08:08:00,
2013-03-11 03:13:00,30.7,30.2,29.65,North,0,0.0,0.0,98,0.00,CLR,,0.00,WeatherDisplay:10.37,2013-03-11 08:13:00,
2013-03-11 03:18:00,30.7,30.2,29.65,North,0,0.0,0.0,98,0.00,CLR,,0.00,WeatherDisplay:10.37,2013-03-11 08:18:00,
2013-03-11 03:23:00,30.6,30.1,29.65,North,0,0.0,0.0,98,0.00,CLR,,0.00,WeatherDisplay:10.37,2013-03-11 08:23:00,
2013-03-11 03:28:00,30.6,30.1,29.62,North,0,0.0,0.0,98,0.00,CLR,,0.00,WeatherDisplay:10.37,2013-03-11 08:28:00,
2013-03-11 03:33:00,30.2,29.7,29.62,North,0,0.0,0.0,98,0.00,CLR,,0.00,WeatherDisplay:10.37,2013-03-11 08:33:00,
2013-03-11 03:38:00,30.2,29.7,29.62,North,0,0.0,0.0,98,0.00,CLR,,0.00,WeatherDisplay:10.37,2013-03-11 08:38:00,
2013-03-11 03:43:00,30.2,29.7,29.59,North,0,0.0,0.0,98,0.00,CLR,,0.00,WeatherDisplay:10.37,2013-03-11 08:43:00,
2013-03-11 03:48:00,30.2,29.7,29.59,North,0,0.0,0.0,98,0.00,CLR,,0.00,WeatherDisplay:10.37,2013-03-11 08:48:00,
2013-03-11 03:53:00,30.0,29.5,29.59,North,0,0.0,0.0,98,0.00,CLR,,0.00,WeatherDisplay:10.37,2013-03-11 08:53:00,
2013-03-11 03:58:00,30.0,29.5,29.59,North,0,0.0,0.0,98,0.00,CLR,,0.00,WeatherDisplay:10.37,2013-03-11 08:58:00,
2013-03-11 04:03:00,29.8,29.3,29.59,North,0,0.0,0.0,98,0.00,CLR,,0.00,WeatherDisplay:10.37,2013-03-11 09:03:00,
2013-03-11 04:08:00,29.8,29.3,29.59,North,0,0.0,0.0,98,0.00,CLR,,0.00,WeatherDisplay:10.37,2013-03-11 09:08:00,
2013-03-11 04:13:00,29.8,29.3,29.57,North,0,0.0,0.0,98,0.00,CLR,,0.00,WeatherDisplay:10.37,2013-03-11 09:13:00,
2013-03-11 04:18:00,29.7,29.2,29.57,North,0,0.0,0.0,98,0.00,CLR,,0.00,WeatherDisplay:10.37,2013-03-11 09:18:00,
2013-03-11 04:23:00,29.7,29.2,29.57,North,0,0.0,0.0,98,0.00,CLR,,0.00,WeatherDisplay:10.37,2013-03-11 09:23:00,
2013-03-11 04:28:00,29.5,28.7,29.59,North,0,0.0,0.0,97,0.00,CLR,,0.00,WeatherDisplay:10.37,2013-03-11 09:28:00,
2013-03-11 04:33:00,29.5,28.7,29.59,North,0,0.0,0.0,97,0.00,CLR,,0.00,WeatherDisplay:10.37,2013-03-11 09:33:00,
2013-03-11 04:38:00,29.5,28.7,29.59,North,0,0.0,0.0,97,0.00,CLR,,0.00,WeatherDisplay:10.37,2013-03-11 09:38:00,
2013-03-11 04:43:00,29.5,28.7,29.59,North,0,0.0,0.0,97,0.00,CLR,,0.00,WeatherDisplay:10.37,2013-03-11 09:43:00,
2013-03-11 04:48:00,29.5,28.7,29.59,North,0,0.0,0.0,97,0.00,CLR,,0.00,WeatherDisplay:10.37,2013-03-11 09:48:00,
2013-03-11 04:53:00,29.5,28.7,29.59,North,0,0.0,0.0,97,0.00,CLR,,0.00,WeatherDisplay:10.37,2013-03-11 09:53:00,
2013-03-11 04:58:00,29.5,28.7,29.59,North,0,0.0,0.0,97,0.00,CLR,,0.00,WeatherDisplay:10.37,2013-03-11 09:58:00,
2013-03-11 05:03:00,29.5,28.7,29.59,North,0,0.0,0.0,97,0.00,CLR,,0.00,WeatherDisplay:10.37,2013-03-11 10:03:00,
2013-03-11 05:08:00,29.5,28.7,29.59,North,0,0.0,0.0,97,0.00,CLR,,0.00,WeatherDisplay:10.37,2013-03-11 10:08:00,
2013-03-11 05:13:00,29.5,28.7,29.62,North,0,0.0,0.0,97,0.00,CLR,,0.00,WeatherDisplay:10.37,2013-03-11 10:13:00,
2013-03-11 05:19:00,29.5,28.7,29.62,North,0,0.0,0.0,97,0.00,CLR,,0.00,WeatherDisplay:10.37,2013-03-11 10:19:00,
2013-03-11 05:24:00,29.5,28.7,29.62,North,0,0.0,0.0,97,0.00,CLR,,0.00,WeatherDisplay:10.37,2013-03-11 10:24:00,
2013-03-11 05:29:00,29.5,28.7,29.59,North,0,0.0,0.0,97,0.00,CLR,,0.00,WeatherDisplay:10.37,2013-03-11 10:29:00,
2013-03-11 05:34:00,29.5,28.7,29.59,North,0,0.0,0.0,97,0.00,CLR,,0.00,WeatherDisplay:10.37,2013-03-11 10:34:00,
2013-03-11 05:39:00,29.5,28.7,29.59,North,0,0.0,0.0,97,0.00,CLR,,0.00,WeatherDisplay:10.37,2013-03-11 10:39:00,
2013-03-11 05:44:00,29.5,28.7,29.57,North,0,0.0,0.0,97,0.00,CLR,,0.00,WeatherDisplay:10.37,2013-03-11 10:44:00,
2013-03-11 05:49:00,29.5,28.7,29.57,North,0,0.0,0.0,97,0.00,CLR,,0.00,WeatherDisplay:10.37,2013-03-11 10:49:00,
2013-03-11 05:54:00,29.5,28.7,29.57,North,0,0.0,0.0,97,0.00,CLR,,0.00,WeatherDisplay:10.37,2013-03-11 10:54:00,
2013-03-11 05:59:00,29.5,28.7,29.57,North,0,0.0,0.0,97,0.00,CLR,,0.00,WeatherDisplay:10.37,2013-03-11 10:59:00,
2013-03-11 06:04:00,29.5,28.7,29.57,North,0,0.0,0.0,97,0.00,CLR,,0.00,WeatherDisplay:10.37,2013-03-11 11:04:00,
2013-03-11 06:09:00,29.5,28.7,29.57,North,0,0.0,0.0,97,0.00,CLR,,0.00,WeatherDisplay:10.37,2013-03-11 11:09:00,
2013-03-11 06:14:00,29.5,28.7,29.59,North,0,0.0,0.0,97,0.00,CLR,,0.00,WeatherDisplay:10.37,2013-03-11 11:14:00,
2013-03-11 06:19:00,29.5,28.7,29.59,North,0,0.0,0.0,97,0.00,CLR,,0.00,WeatherDisplay:10.37,2013-03-11 11:19:00,
2013-03-11 06:24:00,29.3,28.6,29.59,North,0,0.0,0.0,97,0.00,CLR,,0.00,WeatherDisplay:10.37,2013-03-11 11:24:00,
2013-03-11 06:29:00,29.3,28.6,29.59,North,0,0.0,0.0,97,0.00,CLR,,0.00,WeatherDisplay:10.37,2013-03-11 11:29:00,
2013-03-11 06:34:00,29.3,28.6,29.59,North,0,0.0,0.0,97,0.00,CLR,,0.00,WeatherDisplay:10.37,2013-03-11 11:34:00,
2013-03-11 06:39:00,29.3,28.6,29.59,North,0,0.0,0.0,97,0.00,CLR,,0.00,WeatherDisplay:10.37,2013-03-11 11:39:00,
2013-03-11 06:44:00,29.3,28.6,29.59,North,0,0.0,0.0,97,0.00,CLR,,0.00,WeatherDisplay:10.37,2013-03-11 11:44:00,
2013-03-11 06:49:00,29.3,28.6,29.59,North,0,0.0,0.0,97,0.00,CLR,,0.00,WeatherDisplay:10.37,2013-03-11 11:49:00,
2013-03-11 06:54:00,29.3,28.8,29.59,North,0,0.0,0.0,98,0.00,CLR,,0.00,WeatherDisplay:10.37,2013-03-11 11:54:00,
2013-03-11 06:59:00,29.3,28.8,29.59,North,0,0.0,0.0,98,0.00,CLR,,0.00,WeatherDisplay:10.37,2013-03-11 11:59:00,
2013-03-11 07:04:00,29.3,28.8,29.59,North,0,0.0,0.0,98,0.00,CLR,,0.00,WeatherDisplay:10.37,2013-03-11 12:04:00,
2013-03-11 07:09:00,29.3,28.8,29.59,North,0,0.0,0.0,98,0.00,CLR,,0.00,WeatherDisplay:10.37,2013-03-11 12:09:00,
2013-03-11 07:14:00,29.3,28.6,29.59,North,0,0.0,0.0,97,0.00,CLR,,0.00,WeatherDisplay:10.37,2013-03-11 12:14:00,
2013-03-11 07:19:00,29.3,28.6,29.59,North,0,0.0,0.0,97,0.00,CLR,,0.00,WeatherDisplay:10.37,2013-03-11 12:19:00,
2013-03-11 07:24:00,29.3,28.8,29.59,North,0,0.0,0.0,98,0.00,CLR,,0.00,WeatherDisplay:10.37,2013-03-11 12:24:00,
2013-03-11 07:29:00,29.3,28.8,29.62,North,0,0.0,0.0,98,0.00,CLR,,0.00,WeatherDisplay:10.37,2013-03-11 12:29:00,
2013-03-11 07:34:00,29.5,29.0,29.62,North,0,0.0,0.0,98,0.00,CLR,,0.00,WeatherDisplay:10.37,2013-03-11 12:34:00,
2013-03-11 07:39:00,29.5,29.0,29.62,North,0,0.0,0.0,98,0.00,CLR,,0.00,WeatherDisplay:10.37,2013-03-11 12:39:00,
2013-03-11 07:44:00,29.5,28.7,29.62,North,0,0.0,0.0,97,0.00,CLR,,0.00,WeatherDisplay:10.37,2013-03-11 12:44:00,
2013-03-11 07:49:00,29.5,28.7,29.62,North,0,0.0,0.0,97,0.00,CLR,,0.00,WeatherDisplay:10.37,2013-03-11 12:49:00,
2013-03-11 07:54:00,29.7,28.9,29.62,North,0,0.0,0.0,97,0.00,CLR,,0.00,WeatherDisplay:10.37,2013-03-11 12:54:00,
2013-03-11 07:59:00,29.7,28.9,29.65,North,0,0.0,0.0,97,0.00,CLR,,0.00,WeatherDisplay:10.37,2013-03-11 12:59:00,
2013-03-11 08:04:00,29.8,28.8,29.65,North,0,0.0,0.0,96,0.00,CLR,,0.00,WeatherDisplay:10.37,2013-03-11 13:04:00,
2013-03-11 08:09:00,30.0,29.0,29.65,North,0,0.0,0.0,96,0.00,CLR,,0.00,WeatherDisplay:10.37,2013-03-11 13:09:00,
2013-03-11 08:14:00,30.0,28.8,29.62,North,0,0.0,0.0,95,0.00,CLR,,0.00,WeatherDisplay:10.37,2013-03-11 13:14:00,
2013-03-11 08:19:00,30.2,28.9,29.62,North,0,0.0,0.0,95,0.00,CLR,,0.00,WeatherDisplay:10.37,2013-03-11 13:19:00,
2013-03-11 08:24:00,30.4,29.1,29.62,North,0,0.0,0.0,95,0.00,CLR,,0.00,WeatherDisplay:10.37,2013-03-11 13:24:00,
2013-03-11 08:29:00,30.7,29.2,29.62,North,0,0.0,0.0,94,0.00,CLR,,0.00,WeatherDisplay:10.37,2013-03-11 13:29:00,
2013-03-11 08:34:00,31.1,29.3,29.62,North,0,0.0,0.0,93,0.00,CLR,,0.00,WeatherDisplay:10.37,2013-03-11 13:34:00,
2013-03-11 08:39:00,31.1,29.0,29.62,North,0,0.0,0.0,92,0.00,CLR,,0.00,WeatherDisplay:10.37,2013-03-11 13:39:00,
2013-03-11 08:44:00,31.3,28.7,29.59,North,0,0.0,0.0,90,0.00,CLR,,0.00,WeatherDisplay:10.37,2013-03-11 13:44:00,
2013-03-11 08:49:00,31.3,28.7,29.59,North,0,0.0,0.0,90,0.00,CLR,,0.00,WeatherDisplay:10.37,2013-03-11 13:49:00,
2013-03-11 08:54:00,31.6,28.8,29.59,North,0,0.0,0.0,89,0.00,CLR,,0.00,WeatherDisplay:10.37,2013-03-11 13:54:00,
2013-03-11 08:59:00,32.4,29.2,29.59,North,0,0.0,0.0,88,0.00,CLR,,0.00,WeatherDisplay:10.37,2013-03-11 13:59:00,
2013-03-11 09:04:00,33.1,29.9,29.59,North,0,0.0,0.0,88,0.00,CLR,,0.00,WeatherDisplay:10.37,2013-03-11 14:04:00,
2013-03-11 09:09:00,33.6,30.2,29.59,North,0,0.0,0.0,87,0.00,CLR,,0.00,WeatherDisplay:10.37,2013-03-11 14:09:00,
2013-03-11 09:14:00,34.2,29.8,29.59,North,0,0.0,0.0,84,0.00,CLR,,0.00,WeatherDisplay:10.37,2013-03-11 14:14:00,
2013-03-11 09:19:00,34.3,28.8,29.59,North,0,0.0,0.0,80,0.00,CLR,,0.00,WeatherDisplay:10.37,2013-03-11 14:19:00,
2013-03-11 09:24:00,34.5,28.4,29.59,North,0,0.0,0.0,78,0.00,CLR,,0.00,WeatherDisplay:10.37,2013-03-11 14:24:00,
2013-03-11 09:29:00,34.7,28.2,29.59,North,0,0.0,0.0,77,0.00,CLR,,0.00,WeatherDisplay:10.37,2013-03-11 14:29:00,
2013-03-11 09:34:00,34.5,27.4,29.59,North,0,0.0,0.0,75,0.00,CLR,,0.00,WeatherDisplay:10.37,2013-03-11 14:34:00,
2013-03-11 09:39:00,34.9,27.8,29.59,North,0,0.0,0.0,75,0.00,CLR,,0.00,WeatherDisplay:10.37,2013-03-11 14:39:00,
2013-03-11 09:44:00,35.1,27.6,29.59,North,0,0.0,0.0,74,0.00,CLR,,0.00,WeatherDisplay:10.37,2013-03-11 14:44:00,
2013-03-11 09:49:00,35.1,27.9,29.59,North,0,0.0,0.0,75,0.00,CLR,,0.00,WeatherDisplay:10.37,2013-03-11 14:49:00,
2013-03-11 09:54:00,34.3,26.9,29.59,North,0,0.0,0.0,74,0.00,CLR,,0.00,WeatherDisplay:10.37,2013-03-11 14:54:00,
2013-03-11 09:59:00,34.5,27.4,29.59,North,0,0.0,0.0,75,0.00,CLR,,0.00,WeatherDisplay:10.37,2013-03-11 14:59:00,
2013-03-11 10:04:00,34.5,26.8,29.59,North,0,0.0,0.0,73,0.00,CLR,,0.00,WeatherDisplay:10.37,2013-03-11 15:04:00,
2013-03-11 10:09:00,34.5,27.1,29.59,North,0,0.0,0.0,74,0.00,CLR,,0.00,WeatherDisplay:10.37,2013-03-11 15:09:00,
2013-03-11 10:14:00,33.8,26.4,29.59,North,0,0.0,0.0,74,0.00,CLR,,0.00,WeatherDisplay:10.37,2013-03-11 15:14:00,
2013-03-11 10:19:00,33.3,26.5,29.59,North,0,0.0,0.0,76,0.00,CLR,,0.00,WeatherDisplay:10.37,2013-03-11 15:19:00,
2013-03-11 10:24:00,33.3,26.5,29.59,North,0,0.0,0.0,76,0.00,CLR,,0.00,WeatherDisplay:10.37,2013-03-11 15:24:00,
2013-03-11 10:29:00,33.3,26.8,29.59,North,0,0.0,0.0,77,0.00,CLR,,0.00,WeatherDisplay:10.37,2013-03-11 15:29:00,
2013-03-11 10:34:00,33.3,27.1,29.59,North,0,0.0,0.0,78,0.00,CLR,,0.00,WeatherDisplay:10.37,2013-03-11 15:34:00,
2013-03-11 10:39:00,33.6,27.5,29.59,North,0,0.0,0.0,78,0.00,CLR,,0.00,WeatherDisplay:10.37,2013-03-11 15:39:00,
2013-03-11 10:44:00,33.6,27.5,29.59,North,0,0.0,0.0,78,0.00,CLR,,0.00,WeatherDisplay:10.37,2013-03-11 15:44:00,
2013-03-11 10:49:00,33.4,27.0,29.59,North,0,0.0,0.0,77,0.00,CLR,,0.00,WeatherDisplay:10.37,2013-03-11 15:49:00,
2013-03-11 10:54:00,33.4,27.0,29.59,North,0,0.0,0.0,77,0.00,CLR,,0.00,WeatherDisplay:10.37,2013-03-11 15:54:00,
2013-03-11 10:59:00,33.8,27.4,29.59,North,0,0.0,0.0,77,0.00,CLR,,0.00,WeatherDisplay:10.37,2013-03-11 15:59:00,
2013-03-11 11:04:00,33.4,27.0,29.59,North,0,0.0,0.0,77,0.00,CLR,,0.00,WeatherDisplay:10.37,2013-03-11 16:04:00,
2013-03-11 11:09:00,34.0,27.5,29.57,North,0,0.0,0.0,77,0.00,CLR,,0.00,WeatherDisplay:10.37,2013-03-11 16:09:00,
2013-03-11 11:14:00,33.8,27.4,29.57,North,0,0.0,0.0,77,0.00,CLR,,0.00,WeatherDisplay:10.37,2013-03-11 16:14:00,
2013-03-11 11:19:00,33.6,27.2,29.57,North,0,0.0,0.0,77,0.00,CLR,,0.00,WeatherDisplay:10.37,2013-03-11 16:19:00,
2013-03-11 11:24:00,34.0,27.5,29.59,North,0,0.0,0.0,77,0.00,CLR,,0.00,WeatherDisplay:10.37,2013-03-11 16:24:00,
2013-03-11 11:29:00,33.8,27.4,29.59,North,0,0.0,0.0,77,0.00,CLR,,0.00,WeatherDisplay:10.37,2013-03-11 16:29:00,
2013-03-11 11:34:00,33.8,27.4,29.59,North,0,0.0,0.0,77,0.00,CLR,,0.00,WeatherDisplay:10.37,2013-03-11 16:34:00,
2013-03-11 11:39:00,33.6,27.2,29.59,North,0,0.0,0.0,77,0.00,CLR,,0.00,WeatherDisplay:10.37,2013-03-11 16:39:00,
2013-03-11 11:44:00,34.2,28.0,29.59,North,0,0.0,0.0,78,0.00,CLR,,0.00,WeatherDisplay:10.37,2013-03-11 16:44:00,
2013-03-11 11:49:00,34.5,28.4,29.59,North,0,0.0,0.0,78,0.00,CLR,,0.00,WeatherDisplay:10.37,2013-03-11 16:49:00,
2013-03-11 11:54:00,34.2,27.7,29.57,North,0,0.0,0.0,77,0.00,CLR,,0.00,WeatherDisplay:10.37,2013-03-11 16:54:00,
2013-03-11 11:59:00,34.0,26.9,29.57,North,0,0.0,0.0,75,0.00,CLR,,0.00,WeatherDisplay:10.37,2013-03-11 16:59:00,
2013-03-11 12:04:00,35.2,28.8,29.57,North,0,0.0,0.0,77,0.00,CLR,,0.00,WeatherDisplay:10.37,2013-03-11 17:04:00,
2013-03-11 12:10:00,34.5,27.4,29.57,North,0,0.0,0.0,75,0.00,CLR,,0.00,WeatherDisplay:10.37,2013-03-11 17:10:00,
2013-03-11 12:15:00,35.1,27.9,29.57,North,0,0.0,0.0,75,0.00,CLR,,0.00,WeatherDisplay:10.37,2013-03-11 17:15:00,
2013-03-11 12:20:00,34.7,27.3,29.57,North,0,0.0,0.0,74,0.00,CLR,,0.00,WeatherDisplay:10.37,2013-03-11 17:20:00,
2013-03-11 12:25:00,34.9,27.8,29.57,North,0,0.0,0.0,75,0.00,CLR,,0.00,WeatherDisplay:10.37,2013-03-11 17:25:00,
2013-03-11 12:30:00,34.3,26.9,29.57,North,0,0.0,0.0,74,0.00,CLR,,0.00,WeatherDisplay:10.37,2013-03-11 17:30:00,
2013-03-11 12:35:00,34.0,26.9,29.57,North,0,0.0,0.0,75,0.00,CLR,,0.00,WeatherDisplay:10.37,2013-03-11 17:35:00,
2013-03-11 12:40:00,34.0,27.2,29.59,North,0,0.0,0.0,76,0.00,CLR,,0.00,WeatherDisplay:10.37,2013-03-11 17:40:00,
2013-03-11 12:45:00,34.2,27.4,29.59,North,0,0.0,0.0,76,0.00,CLR,,0.00,WeatherDisplay:10.37,2013-03-11 17:45:00,
2013-03-11 12:50:00,34.3,27.9,29.59,North,0,0.0,0.0,77,0.00,CLR,,0.00,WeatherDisplay:10.37,2013-03-11 17:50:00,
2013-03-11 12:55:00,34.2,27.4,29.57,North,0,0.0,0.0,76,0.00,CLR,,0.00,WeatherDisplay:10.37,2013-03-11 17:55:00,
2013-03-11 13:00:00,34.3,27.6,29.57,North,0,0.0,0.0,76,0.00,CLR,,0.00,WeatherDisplay:10.37,2013-03-11 18:00:00,
2013-03-11 13:05:00,34.3,27.6,29.57,North,0,0.0,0.0,76,0.00,CLR,,0.00,WeatherDisplay:10.37,2013-03-11 18:05:00,
2013-03-11 13:10:00,34.2,27.4,29.59,North,0,0.0,0.0,76,0.00,CLR,,0.00,WeatherDisplay:10.37,2013-03-11 18:10:00,
2013-03-11 13:15:00,33.8,26.7,29.59,North,0,0.0,0.0,75,0.00,CLR,,0.00,WeatherDisplay:10.37,2013-03-11 18:15:00,
2013-03-11 13:20:00,34.0,26.9,29.59,North,0,0.0,0.0,75,0.00,CLR,,0.00,WeatherDisplay:10.37,2013-03-11 18:20:00,
2013-03-11 13:25:00,34.3,27.6,29.57,North,0,0.0,0.0,76,0.00,CLR,,0.00,WeatherDisplay:10.37,2013-03-11 18:25:00,
2013-03-11 13:30:00,34.7,27.9,29.57,North,0,0.0,0.0,76,0.00,CLR,,0.00,WeatherDisplay:10.37,2013-03-11 18:30:00,
2013-03-11 13:35:00,34.7,27.3,29.57,North,0,0.0,0.0,74,0.00,CLR,,0.00,WeatherDisplay:10.37,2013-03-11 18:35:00,
2013-03-11 13:40:00,34.3,26.9,29.57,North,0,0.0,0.0,74,0.00,CLR,,0.00,WeatherDisplay:10.37,2013-03-11 18:40:00,
2013-03-11 13:45:00,34.0,26.6,29.57,North,0,0.0,0.0,74,0.00,CLR,,0.00,WeatherDisplay:10.37,2013-03-11 18:45:00,
2013-03-11 13:50:00,34.0,26.6,29.57,North,0,0.0,0.0,74,0.00,CLR,,0.00,WeatherDisplay:10.37,2013-03-11 18:50:00,
2013-03-11 13:55:00,34.0,26.6,29.57,North,0,0.0,0.0,74,0.00,CLR,,0.00,WeatherDisplay:10.37,2013-03-11 18:55:00,
2013-03-11 14:00:00,33.8,26.4,29.57,North,0,0.0,0.0,74,0.00,CLR,,0.00,WeatherDisplay:10.37,2013-03-11 19:00:00,
2013-03-11 14:05:00,33.8,26.4,29.57,North,0,0.0,0.0,74,0.00,CLR,,0.00,WeatherDisplay:10.37,2013-03-11 19:05:00,
2013-03-11 14:10:00,33.8,26.4,29.57,North,0,0.0,0.0,74,0.00,CLR,,0.00,WeatherDisplay:10.37,2013-03-11 19:10:00,
2013-03-11 14:15:00,33.6,26.2,29.57,North,0,0.0,0.0,74,0.00,CLR,,0.00,WeatherDisplay:10.37,2013-03-11 19:15:00,
2013-03-11 14:20:00,33.8,26.7,29.57,North,0,0.0,0.0,75,0.00,CLR,,0.00,WeatherDisplay:10.37,2013-03-11 19:20:00,
2013-03-11 14:25:00,33.6,26.5,29.57,North,0,0.0,0.0,75,0.00,CLR,,0.00,WeatherDisplay:10.37,2013-03-11 19:25:00,
2013-03-11 14:30:00,33.1,25.7,29.57,North,0,0.0,0.0,74,0.00,CLR,,0.00,WeatherDisplay:10.37,2013-03-11 19:30:00,
2013-03-11 14:36:00,32.9,25.5,29.57,North,0,0.0,0.0,74,0.00,CLR,,0.00,WeatherDisplay:10.37,2013-03-11 19:36:00,
2013-03-11 14:41:00,33.1,26.0,29.57,North,0,0.0,0.0,75,0.00,CLR,,0.00,WeatherDisplay:10.37,2013-03-11 19:41:00,
2013-03-11 14:46:00,33.1,26.0,29.57,North,0,0.0,0.0,75,0.00,CLR,,0.00,WeatherDisplay:10.37,2013-03-11 19:46:00,
2013-03-11 14:51:00,33.4,26.4,29.57,North,0,0.0,0.0,75,0.00,CLR,,0.00,WeatherDisplay:10.37,2013-03-11 19:51:00,
2013-03-11 14:56:00,33.3,26.2,29.57,North,0,0.0,0.0,75,0.00,CLR,,0.00,WeatherDisplay:10.37,2013-03-11 19:56:00,
2013-03-11 15:01:00,33.4,26.4,29.57,North,0,0.0,0.0,75,0.00,CLR,,0.00,WeatherDisplay:10.37,2013-03-11 20:01:00,
2013-03-11 15:06:00,33.4,26.4,29.57,North,0,0.0,0.0,75,0.00,CLR,,0.00,WeatherDisplay:10.37,2013-03-11 20:06:00,
2013-03-11 15:11:00,33.3,26.2,29.57,North,0,0.0,0.0,75,0.00,CLR,,0.00,WeatherDisplay:10.37,2013-03-11 20:11:00,
2013-03-11 15:16:00,33.3,26.5,29.57,North,0,0.0,0.0,76,0.00,CLR,,0.00,WeatherDisplay:10.37,2013-03-11 20:16:00,
2013-03-11 15:21:00,33.1,26.7,29.57,North,0,0.0,0.0,77,0.00,CLR,,0.00,WeatherDisplay:10.37,2013-03-11 20:21:00,
2013-03-11 15:26:00,32.9,26.5,29.57,North,0,0.0,0.0,77,0.00,CLR,,0.00,WeatherDisplay:10.37,2013-03-11 20:26:00,
2013-03-11 15:31:00,32.7,26.3,29.57,North,0,0.0,0.0,77,0.00,CLR,,0.00,WeatherDisplay:10.37,2013-03-11 20:31:00,
2013-03-11 15:36:00,32.5,25.8,29.57,North,0,0.0,0.0,76,0.00,CLR,,0.00,WeatherDisplay:10.37,2013-03-11 20:36:00,
2013-03-11 15:41:00,32.9,26.5,29.57,North,0,0.0,0.0,77,0.00,CLR,,0.00,WeatherDisplay:10.37,2013-03-11 20:41:00,
2013-03-11 15:46:00,33.1,27.0,29.57,North,0,0.0,0.0,78,0.00,CLR,,0.00,WeatherDisplay:10.37,2013-03-11 20:46:00,
2013-03-11 15:51:00,33.1,26.7,29.57,North,0,0.0,0.0,77,0.00,CLR,,0.00,WeatherDisplay:10.37,2013-03-11 20:51:00,
2013-03-11 15:56:00,33.1,27.0,29.59,North,0,0.0,0.0,78,0.00,CLR,,0.00,WeatherDisplay:10.37,2013-03-11 20:56:00,
2013-03-11 16:01:00,33.3,27.1,29.59,North,0,0.0,0.0,78,0.00,CLR,,0.00,WeatherDisplay:10.37,2013-03-11 21:01:00,
2013-03-11 16:06:00,32.9,26.2,29.59,North,0,0.0,0.0,76,0.00,CLR,,0.00,WeatherDisplay:10.37,2013-03-11 21:06:00,
2013-03-11 16:11:00,33.3,26.5,29.59,North,0,0.0,0.0,76,0.00,CLR,,0.00,WeatherDisplay:10.37,2013-03-11 21:11:00,
2013-03-11 16:16:00,33.3,26.5,29.59,North,0,0.0,0.0,76,0.00,CLR,,0.00,WeatherDisplay:10.37,2013-03-11 21:16:00,
2013-03-11 16:21:00,33.3,26.5,29.59,North,0,0.0,0.0,76,0.00,CLR,,0.00,WeatherDisplay:10.37,2013-03-11 21:21:00,
2013-03-11 16:27:00,32.9,26.5,29.59,North,0,0.0,0.0,77,0.00,CLR,,0.00,WeatherDisplay:10.37,2013-03-11 21:27:00,
2013-03-11 16:32:00,32.7,26.9,29.59,North,0,0.0,0.0,79,0.00,CLR,,0.00,WeatherDisplay:10.37,2013-03-11 21:32:00,
2013-03-11 16:37:00,32.7,27.2,29.59,North,0,0.0,0.0,80,0.00,CLR,,0.00,WeatherDisplay:10.37,2013-03-11 21:37:00,
2013-03-11 16:42:00,32.0,26.8,29.62,North,0,0.0,0.0,81,0.00,CLR,,0.00,WeatherDisplay:10.37,2013-03-11 21:42:00,
2013-03-11 16:47:00,31.8,27.2,29.62,North,0,0.0,0.0,83,0.00,CLR,,0.00,WeatherDisplay:10.37,2013-03-11 21:47:00,
2013-03-11 16:52:00,32.2,27.3,29.62,North,0,0.0,0.0,82,0.00,CLR,,0.00,WeatherDisplay:10.37,2013-03-11 21:52:00,
2013-03-11 16:57:00,32.4,27.2,29.59,North,0,0.0,0.0,81,0.00,CLR,,0.00,WeatherDisplay:10.37,2013-03-11 21:57:00,
2013-03-11 17:02:00,32.7,27.2,29.59,North,0,0.0,0.0,80,0.00,CLR,,0.00,WeatherDisplay:10.37,2013-03-11 22:02:00,
2013-03-11 17:07:00,32.5,26.1,29.59,North,0,0.0,0.0,77,0.00,CLR,,0.00,WeatherDisplay:10.37,2013-03-11 22:07:00,
2013-03-11 17:12:00,32.5,26.4,29.59,North,0,0.0,0.0,78,0.00,CLR,,0.00,WeatherDisplay:10.37,2013-03-11 22:12:00,
2013-03-11 17:17:00,32.5,26.7,29.59,North,0,0.0,0.0,79,0.00,CLR,,0.00,WeatherDisplay:10.37,2013-03-11 22:17:00,
2013-03-11 17:22:00,32.5,26.7,29.59,North,0,0.0,0.0,79,0.00,CLR,,0.00,WeatherDisplay:10.37,2013-03-11 22:22:00,
2013-03-11 17:27:00,32.4,26.6,29.59,North,0,0.0,0.0,79,0.00,CLR,,0.00,WeatherDisplay:10.37,2013-03-11 22:27:00,
2013-03-11 17:32:00,32.4,26.6,29.59,North,0,0.0,0.0,79,0.00,CLR,,0.00,WeatherDisplay:10.37,2013-03-11 22:32:00,
2013-03-11 17:37:00,32.4,26.6,29.59,North,0,0.0,0.0,79,0.00,CLR,,0.00,WeatherDisplay:10.37,2013-03-11 22:37:00,
2013-03-11 17:42:00,32.4,26.6,29.59,North,0,0.0,0.0,79,0.00,CLR,,0.00,WeatherDisplay:10.37,2013-03-11 22:42:00,
2013-03-11 17:47:00,32.7,26.9,29.59,North,0,0.0,0.0,79,0.00,CLR,,0.00,WeatherDisplay:10.37,2013-03-11 22:47:00,
2013-03-11 17:52:00,32.7,26.6,29.59,North,0,0.0,0.0,78,0.00,CLR,,0.00,WeatherDisplay:10.37,2013-03-11 22:52:00,
2013-03-11 17:57:00,32.7,26.6,29.59,North,0,0.0,0.0,78,0.00,CLR,,0.00,WeatherDisplay:10.37,2013-03-11 22:57:00,
2013-03-11 18:02:00,32.5,26.4,29.59,North,0,0.0,0.0,78,0.00,CLR,,0.00,WeatherDisplay:10.37,2013-03-11 23:02:00,
2013-03-11 18:07:00,32.4,26.3,29.59,North,0,0.0,0.0,78,0.00,CLR,,0.00,WeatherDisplay:10.37,2013-03-11 23:07:00,
2013-03-11 18:12:00,32.0,25.9,29.59,North,0,0.0,0.0,78,0.00,CLR,,0.00,WeatherDisplay:10.37,2013-03-11 23:12:00,
2013-03-11 18:17:00,31.6,25.9,29.59,North,0,0.0,0.0,79,0.00,CLR,,0.00,WeatherDisplay:10.37,2013-03-11 23:17:00,
2013-03-11 18:22:00,31.5,26.0,29.59,North,0,0.0,0.0,80,0.00,CLR,,0.00,WeatherDisplay:10.37,2013-03-11 23:22:00,
2013-03-11 18:28:00,31.3,25.8,29.59,North,0,0.0,0.0,80,0.00,CLR,,0.00,WeatherDisplay:10.37,2013-03-11 23:28:00,
2013-03-11 18:33:00,31.1,26.0,29.59,North,0,0.0,0.0,81,0.00,CLR,,0.00,WeatherDisplay:10.37,2013-03-11 23:33:00,
2013-03-11 18:38:00,30.9,25.5,29.59,North,0,5.6,9.2,80,0.00,CLR,,0.00,WeatherDisplay:10.37,2013-03-11 23:38:00,
2013-03-11 18:43:00,30.7,25.6,29.62,North,0,4.9,8.1,81,0.00,CLR,,0.00,WeatherDisplay:10.37,2013-03-11 23:43:00,
2013-03-11 18:48:00,30.6,24.8,29.62,North,0,3.6,9.2,79,0.03,RA,,0.03,WeatherDisplay:10.37,2013-03-11 23:48:00,
2013-03-11 18:53:00,30.4,24.6,29.62,North,0,5.0,9.0,79,0.00,RA,,0.03,WeatherDisplay:10.37,2013-03-11 23:53:00,
2013-03-11 18:58:00,30.2,24.8,29.65,North,0,5.0,11.0,80,0.00,CLR,,0.03,WeatherDisplay:10.37,2013-03-11 23:58:00,
2013-03-11 19:03:00,30.2,24.8,29.65,North,0,4.3,6.9,80,0.03,CLR,,0.03,WeatherDisplay:10.37,2013-03-12 00:03:00,
2013-03-11 19:08:00,30.0,24.3,29.65,North,0,4.3,5.8,79,0.03,CLR,,0.03,WeatherDisplay:10.37,2013-03-12 00:08:00,
2013-03-11 19:13:00,30.0,24.3,29.65,North,0,5.0,8.0,79,0.00,CLR,,0.03,WeatherDisplay:10.37,2013-03-12 00:13:00,
2013-03-11 19:18:00,29.8,23.8,29.65,North,0,5.4,10.4,78,0.03,CLR,,0.03,WeatherDisplay:10.37,2013-03-12 00:18:00,
2013-03-11 19:23:00,29.8,23.5,29.65,North,0,3.0,8.0,77,0.00,CLR,,0.03,WeatherDisplay:10.37,2013-03-12 00:23:00,
2013-03-11 19:28:00,29.7,23.3,29.65,North,0,5.4,5.4,77,0.03,CLR,,0.03,WeatherDisplay:10.37,2013-03-12 00:28:00,
2013-03-11 19:33:00,29.6,23.2,29.65,North,0,5.0,8.0,77,0.00,CLR,,0.03,WeatherDisplay:10.37,2013-03-12 00:33:00,
2013-03-11 19:38:00,29.5,23.5,29.65,North,0,3.0,9.0,78,0.00,CLR,,0.03,WeatherDisplay:10.37,2013-03-12 00:38:00,
2013-03-11 19:43:00,29.5,23.5,29.65,North,0,3.6,4.6,78,0.03,CLR,,0.03,WeatherDisplay:10.37,2013-03-12 00:43:00,
2013-03-11 19:48:00,29.3,23.3,29.65,North,0,3.0,8.0,78,0.00,CLR,,0.03,WeatherDisplay:10.37,2013-03-12 00:48:00,
2013-03-11 19:53:00,29.3,23.9,29.65,North,0,2.9,4.9,80,0.00,CLR,,0.03,WeatherDisplay:10.37,2013-03-12 00:53:00,
2013-03-11 19:58:00,29.1,24.0,29.65,North,0,4.5,5.8,81,0.00,CLR,,0.03,WeatherDisplay:10.37,2013-03-12 00:58:00,
2013-03-11 20:03:00,29.1,24.0,29.65,North,0,4.7,6.9,81,0.00,CLR,,0.03,WeatherDisplay:10.37,2013-03-12 01:03:00,
2013-03-11 20:08:00,28.9,23.5,29.65,North,0,5.6,5.8,80,0.00,CLR,,0.03,WeatherDisplay:10.37,2013-03-12 01:08:00,
2013-03-11 20:13:00,28.9,23.5,29.68,North,0,4.7,6.9,80,0.00,CLR,,0.03,WeatherDisplay:10.37,2013-03-12 01:13:00,
2013-03-11 20:18:00,28.8,23.7,29.68,North,0,4.7,8.5,81,0.00,CLR,,0.03,WeatherDisplay:10.37,2013-03-12 01:18:00,
2013-03-11 20:23:00,28.6,23.2,29.68,North,0,5.9,6.0,80,0.00,CLR,,0.03,WeatherDisplay:10.37,2013-03-12 01:23:00,
2013-03-11 20:28:00,28.6,23.2,29.68,North,0,4.3,4.6,80,0.00,CLR,,0.03,WeatherDisplay:10.37,2013-03-12 01:28:00,
2013-03-11 20:33:00,28.4,23.0,29.68,North,0,2.6,3.5,80,0.00,CLR,,0.03,WeatherDisplay:10.37,2013-03-12 01:33:00,
2013-03-11 20:38:00,28.2,22.2,29.68,North,0,4.0,10.4,78,0.00,CLR,,0.03,WeatherDisplay:10.37,2013-03-12 01:38:00,
2013-03-11 20:43:00,28.2,21.9,29.68,North,0,4.9,8.1,77,0.00,CLR,,0.03,WeatherDisplay:10.37,2013-03-12 01:43:00,
2013-03-11 20:48:00,28.0,21.8,29.68,North,0,4.0,6.9,77,0.00,CLR,,0.03,WeatherDisplay:10.37,2013-03-12 01:48:00,
2013-03-11 20:53:00,27.9,21.6,29.68,North,0,4.5,4.6,77,0.00,CLR,,0.03,WeatherDisplay:10.37,2013-03-12 01:53:00,
2013-03-11 20:58:00,27.9,21.9,29.68,North,0,3.1,3.5,78,0.00,CLR,,0.03,WeatherDisplay:10.37,2013-03-12 01:58:00,
2013-03-11 21:03:00,27.9,21.9,29.68,North,0,3.6,4.7,78,0.00,CLR,,0.03,WeatherDisplay:10.37,2013-03-12 02:03:00,
2013-03-11 21:08:00,27.7,22.0,29.68,North,0,3.1,3.6,79,0.00,CLR,,0.03,WeatherDisplay:10.37,2013-03-12 02:08:00,
2013-03-11 21:13:00,27.7,22.0,29.71,North,0,2.9,3.5,79,0.00,CLR,,0.03,WeatherDisplay:10.37,2013-03-12 02:13:00,
2013-03-11 21:18:00,27.7,22.3,29.71,North,0,4.5,5.8,80,0.00,CLR,,0.03,WeatherDisplay:10.37,2013-03-12 02:18:00,
2013-03-11 21:23:00,27.7,22.6,29.71,North,0,3.1,5.6,81,0.00,CLR,,0.03,WeatherDisplay:10.37,2013-03-12 02:23:00,
2013-03-11 21:28:00,27.7,22.6,29.71,North,0,4.0,5.8,81,0.00,CLR,,0.03,WeatherDisplay:10.37,2013-03-12 02:28:00,
2013-03-11 21:33:00,27.7,22.9,29.71,North,0,2.9,6.2,82,0.00,CLR,,0.03,WeatherDisplay:10.37,2013-03-12 02:33:00,
2013-03-11 21:38:00,27.7,22.9,29.71,North,0,2.9,4.6,82,0.00,CLR,,0.03,WeatherDisplay:10.37,2013-03-12 02:38:00,
2013-03-11 21:43:00,27.7,23.2,29.71,North,0,2.2,3.5,83,0.00,CLR,,0.03,WeatherDisplay:10.37,2013-03-12 02:43:00,
2013-03-11 21:48:00,27.7,22.9,29.71,North,0,4.5,6.9,82,0.00,CLR,,0.03,WeatherDisplay:10.37,2013-03-12 02:48:00,
2013-03-11 21:53:00,27.7,22.6,29.71,North,0,5.4,6.9,81,0.00,CLR,,0.03,WeatherDisplay:10.37,2013-03-12 02:53:00,
2013-03-11 21:58:00,27.7,22.6,29.71,North,0,3.1,3.8,81,0.00,CLR,,0.03,WeatherDisplay:10.37,2013-03-12 02:58:00,
2013-03-11 22:03:00,27.7,22.6,29.71,North,0,3.3,4.6,81,0.00,CLR,,0.03,WeatherDisplay:10.37,2013-03-12 03:03:00,
2013-03-11 22:08:00,27.7,22.6,29.71,North,0,2.4,3.5,81,0.00,CLR,,0.03,WeatherDisplay:10.37,2013-03-12 03:08:00,
2013-03-11 22:13:00,27.7,22.6,29.71,North,0,4.3,6.9,81,0.00,CLR,,0.03,WeatherDisplay:10.37,2013-03-12 03:13:00,
2013-03-11 22:18:00,27.7,22.6,29.71,North,0,2.0,3.6,81,0.00,CLR,,0.03,WeatherDisplay:10.37,2013-03-12 03:18:00,
2013-03-11 22:23:00,27.5,22.4,29.71,North,0,2.4,4.6,81,0.00,CLR,,0.03,WeatherDisplay:10.37,2013-03-12 03:23:00,
2013-03-11 22:28:00,27.5,22.4,29.71,North,0,3.8,4.6,81,0.00,CLR,,0.03,WeatherDisplay:10.37,2013-03-12 03:28:00,
2013-03-11 22:33:00,27.5,22.1,29.71,North,0,2.9,4.6,80,0.00,CLR,,0.03,WeatherDisplay:10.37,2013-03-12 03:33:00,
2013-03-11 22:38:00,27.5,22.1,29.71,North,0,3.6,5.8,80,0.00,CLR,,0.03,WeatherDisplay:10.37,2013-03-12 03:38:00,
2013-03-11 22:43:00,27.5,22.4,29.71,North,0,2.0,2.9,81,0.00,CLR,,0.03,WeatherDisplay:10.37,2013-03-12 03:43:00,
2013-03-11 22:48:00,27.5,22.4,29.71,North,0,4.3,5.8,81,0.00,CLR,,0.03,WeatherDisplay:10.37,2013-03-12 03:48:00,
2013-03-11 22:53:00,27.5,22.1,29.71,North,0,2.9,3.5,80,0.00,CLR,,0.03,WeatherDisplay:10.37,2013-03-12 03:53:00,
2013-03-11 22:58:00,27.5,22.4,29.71,North,0,2.9,4.6,81,0.00,CLR,,0.03,WeatherDisplay:10.37,2013-03-12 03:58:00,
2013-03-11 23:00:00,27.5,22.4,29.71,North,0,4.0,5.8,81,0.00,CLR,,0.03,WeatherDisplay:10.37,2013-03-12 04:00:00,
2013-03-11 23:01:00,27.5,22.4,29.71,North,0,3.1,4.6,81,0.00,CLR,,0.03,WeatherDisplay:10.37,2013-03-12 04:01:00,
2013-03-11 23:06:00,27.5,22.4,29.71,North,0,3.1,4.6,81,0.00,CLR,,0.03,WeatherDisplay:10.37,2013-03-12 04:06:00,
2013-03-11 23:11:00,27.5,22.4,29.71,North,0,2.4,4.9,81,0.00,CLR,,0.03,WeatherDisplay:10.37,2013-03-12 04:11:00,
2013-03-11 23:16:00,27.5,22.4,29.71,North,0,4.9,8.5,81,0.00,CLR,,0.03,WeatherDisplay:10.37,2013-03-12 04:16:00,
2013-03-11 23:22:00,27.5,22.1,29.71,North,0,2.9,4.6,80,0.00,CLR,,0.03,WeatherDisplay:10.37,2013-03-12 04:22:00,
2013-03-11 23:27:00,27.3,22.0,29.71,North,0,3.8,4.6,80,0.00,CLR,,0.03,WeatherDisplay:10.37,2013-03-12 04:27:00,
2013-03-11 23:32:00,27.3,21.7,29.71,North,0,3.3,4.6,79,0.00,CLR,,0.03,WeatherDisplay:10.37,2013-03-12 04:32:00,
2013-03-11 23:37:00,27.3,21.4,29.71,North,0,3.1,3.6,78,0.00,CLR,,0.03,WeatherDisplay:10.37,2013-03-12 04:37:00,
2013-03-11 23:42:00,27.3,21.4,29.74,North,0,2.9,4.6,78,0.00,CLR,,0.03,WeatherDisplay:10.37,2013-03-12 04:42:00,
2013-03-11 23:47:00,27.3,21.4,29.74,North,0,2.9,4.0,78,0.00,CLR,,0.03,WeatherDisplay:10.37,2013-03-12 04:47:00,
2013-03-11 23:52:00,27.1,21.2,29.74,North,0,2.6,5.8,78,0.00,CLR,,0.03,WeatherDisplay:10.37,2013-03-12 04:52:00,
2013-03-11 23:57:00,27.1,21.2,29.74,North,0,3.8,4.6,78,0.00,CLR,,0.03,WeatherDisplay:10.37,2013-03-12 04:57:00,